• In Deutschland
  • Länderverzeichnis
  • Für 7 Tage
  • Wassertemperatur
  • Satellitenkarten
  • Wetterkarte
  • Widgets
  • user-avatar
    Anmelden

    Stündliche Wetter Inowrocław

    Heute, 11 Dezember, Montag

    Zeit Temperatur Niederschläge Wind Luftdruck Luftfeuchtigkeit
    00:00 -1°C° 0,4 mm 5 m/S 734 mmHg 80%
    01:00 -2°C° 0 mm 6 m/S 733 mmHg 81%
    02:00 -2°C° 0,2 mm 6 m/S 733 mmHg 81%
    03:00 -1°C° 0,2 mm 7 m/S 733 mmHg 81%
    04:00 -1°C° 0,2 mm 7 m/S 733 mmHg 80%
    05:00 0°C° 0,4 mm 7 m/S 733 mmHg 80%
    06:00 0°C° 0,4 mm 7 m/S 734 mmHg 80%
    07:00 0°C° 0,4 mm 7 m/S 734 mmHg 80%
    08:00 +2°C° 0 mm 7 m/S 734 mmHg 81%
    09:00 +2°C° 0 mm 6 m/S 735 mmHg 81%
    10:00 +2°C° 0 mm 6 m/S 735 mmHg 81%
    11:00 +2°C° 0 mm 5 m/S 735 mmHg 82%
    12:00 +3°C° 0 mm 4 m/S 736 mmHg 82%
    13:00 +4°C° 0 mm 4 m/S 736 mmHg 83%
    14:00 +3°C° 0 mm 4 m/S 736 mmHg 85%
    15:00 +3°C° 0 mm 3 m/S 736 mmHg 87%
    16:00 +2°C° 0 mm 3 m/S 735 mmHg 89%
    17:00 +3°C° 0 mm 4 m/S 735 mmHg 90%
    18:00 +3°C° 0 mm 4 m/S 735 mmHg 90%
    19:00 +2°C° 0 mm 5 m/S 734 mmHg 90%
    20:00 +3°C° 0 mm 5 m/S 734 mmHg 90%
    21:00 +5°C° 0 mm 4 m/S 734 mmHg 91%
    22:00 +5°C° 0 mm 4 m/S 734 mmHg 91%
    23:00 +5°C° 0 mm 4 m/S 734 mmHg 90%

    Morgen, 12 Dezember, Dienstag

    Zeit Temperatur Niederschläge Wind Luftdruck Luftfeuchtigkeit
    00:00 +5°C° 0 mm 4 m/S 734 mmHg 89%
    01:00 +6°C° 0 mm 4 m/S 734 mmHg 88%
    02:00 +5°C° 0 mm 4 m/S 735 mmHg 88%
    03:00 +5°C° 0 mm 4 m/S 735 mmHg 89%
    04:00 +4°C° 0 mm 4 m/S 736 mmHg 89%
    05:00 +4°C° 0,1 mm 4 m/S 736 mmHg 90%
    06:00 +4°C° 0,1 mm 4 m/S 737 mmHg 90%
    07:00 +3°C° 0,1 mm 5 m/S 738 mmHg 90%
    08:00 +5°C° 0 mm 5 m/S 738 mmHg 86%
    09:00 +4°C° 0 mm 6 m/S 739 mmHg 82%
    10:00 +5°C° 0 mm 6 m/S 739 mmHg 78%
    11:00 +5°C° 0 mm 7 m/S 740 mmHg 73%
    12:00 +6°C° 0 mm 8 m/S 740 mmHg 68%
    13:00 +6°C° 0 mm 8 m/S 741 mmHg 62%
    14:00 +5°C° 0 mm 9 m/S 741 mmHg 64%
    15:00 +3°C° 0 mm 9 m/S 742 mmHg 66%
    16:00 +3°C° 0 mm 9 m/S 743 mmHg 67%
    17:00 +2°C° 0 mm 9 m/S 744 mmHg 68%
    18:00 +2°C° 0 mm 9 m/S 745 mmHg 69%
    19:00 +1°C° 0 mm 9 m/S 746 mmHg 69%
    20:00 +1°C° 0 mm 9 m/S 747 mmHg 70%
    21:00 +1°C° 0 mm 9 m/S 747 mmHg 71%
    22:00 +1°C° 0 mm 8 m/S 748 mmHg 72%
    23:00 0°C° 0 mm 8 m/S 749 mmHg 73%

    übermorgen, 13 Dezember, Mittwoch

    Zeit Temperatur Niederschläge Wind Luftdruck Luftfeuchtigkeit
    00:00 0°C° 0 mm 8 m/S 750 mmHg 74%
    01:00 -1°C° 0 mm 7 m/S 750 mmHg 76%
    02:00 -1°C° 0 mm 7 m/S 751 mmHg 77%
    03:00 -2°C° 0 mm 6 m/S 751 mmHg 78%
    04:00 -2°C° 0 mm 6 m/S 752 mmHg 80%
    05:00 -1°C° 0 mm 5 m/S 752 mmHg 83%
    06:00 -1°C° 0 mm 5 m/S 753 mmHg 86%
    07:00 -2°C° 0 mm 4 m/S 753 mmHg 90%
    08:00 -1°C° 0 mm 5 m/S 754 mmHg 88%
    09:00 -1°C° 0 mm 5 m/S 754 mmHg 86%
    10:00 -1°C° 0 mm 5 m/S 754 mmHg 85%
    11:00 0°C° 0 mm 5 m/S 754 mmHg 81%
    12:00 0°C° 0 mm 5 m/S 753 mmHg 77%
    13:00 +1°C° 0 mm 5 m/S 753 mmHg 73%
    14:00 0°C° 0 mm 5 m/S 752 mmHg 74%
    15:00 0°C° 0 mm 5 m/S 752 mmHg 74%
    16:00 -1°C° 0 mm 5 m/S 751 mmHg 75%
    17:00 -2°C° 0 mm 6 m/S 751 mmHg 73%
    18:00 -2°C° 0 mm 6 m/S 750 mmHg 72%
    19:00 -2°C° 0 mm 6 m/S 750 mmHg 70%
    20:00 -2°C° 0 mm 6 m/S 749 mmHg 69%
    21:00 -2°C° 0 mm 7 m/S 748 mmHg 68%
    22:00 -2°C° 0 mm 7 m/S 747 mmHg 67%
    23:00 -2°C° 0 mm 7 m/S 747 mmHg 66%

    14 Dezember, Donnerstag

    Zeit Temperatur Niederschläge Wind Luftdruck Luftfeuchtigkeit
    00:00 -2°C° 0 mm 7 m/S 746 mmHg 65%
    01:00 -1°C° 0 mm 7 m/S 745 mmHg 63%
    02:00 -1°C° 0,1 mm 7 m/S 744 mmHg 65%
    03:00 -1°C° 0,1 mm 7 m/S 744 mmHg 67%
    04:00 -1°C° 0,1 mm 6 m/S 743 mmHg 69%
    05:00 -1°C° 0 mm 7 m/S 742 mmHg 71%
    06:00 0°C° 0 mm 7 m/S 742 mmHg 73%
    07:00 0°C° 0 mm 7 m/S 741 mmHg 76%
    08:00 0°C° 0,4 mm 7 m/S 741 mmHg 75%
    09:00 0°C° 0,4 mm 7 m/S 741 mmHg 75%
    10:00 +2°C° 0,4 mm 7 m/S 741 mmHg 75%
    11:00 +2°C° 0 mm 6 m/S 741 mmHg 76%
    12:00 +3°C° 0 mm 6 m/S 740 mmHg 77%
    13:00 +3°C° 0 mm 5 m/S 740 mmHg 78%
    14:00 +3°C° 0 mm 5 m/S 740 mmHg 79%
    15:00 +2°C° 0 mm 5 m/S 740 mmHg 80%
    16:00 +2°C° 0 mm 5 m/S 739 mmHg 82%
    17:00 +2°C° 0 mm 5 m/S 739 mmHg 82%
    18:00 +1°C° 0 mm 5 m/S 738 mmHg 83%
    19:00 +1°C° 0 mm 5 m/S 737 mmHg 83%
    20:00 +1°C° 0,3 mm 5 m/S 737 mmHg 83%
    21:00 +2°C° 0,3 mm 6 m/S 736 mmHg 83%
    22:00 +2°C° 0,3 mm 6 m/S 735 mmHg 83%
    23:00 +2°C° 1,7 mm 7 m/S 735 mmHg 83%

    15 Dezember, Freitag

    Zeit Temperatur Niederschläge Wind Luftdruck Luftfeuchtigkeit
    00:00 +2°C° 1,7 mm 7 m/S 736 mmHg 83%
    01:00 +2°C° 1,7 mm 7 m/S 736 mmHg 83%
    02:00 0°C° 0,2 mm 7 m/S 736 mmHg 82%
    03:00 +1°C° 0,2 mm 6 m/S 737 mmHg 81%
    04:00 0°C° 0,2 mm 5 m/S 738 mmHg 80%
    05:00 0°C° 0 mm 5 m/S 739 mmHg 82%
    06:00 -1°C° 0 mm 5 m/S 739 mmHg 84%
    07:00 -1°C° 0 mm 5 m/S 740 mmHg 86%
    08:00 -1°C° 0 mm 5 m/S 741 mmHg 85%
    09:00 -1°C° 0 mm 5 m/S 741 mmHg 83%
    10:00 -1°C° 0 mm 6 m/S 741 mmHg 81%
    11:00 -1°C° 0 mm 6 m/S 741 mmHg 78%
    12:00 +1°C° 0 mm 6 m/S 741 mmHg 74%
    13:00 +1°C° 0 mm 6 m/S 741 mmHg 70%
    14:00 0°C° 0 mm 5 m/S 741 mmHg 72%
    15:00 0°C° 0 mm 4 m/S 741 mmHg 75%
    16:00 0°C° 0 mm 3 m/S 741 mmHg 77%
    17:00 0°C° 0 mm 3 m/S 741 mmHg 79%
    18:00 -1°C° 0 mm 3 m/S 742 mmHg 80%
    19:00 -1°C° 0 mm 3 m/S 742 mmHg 81%
    20:00 -1°C° 0 mm 3 m/S 742 mmHg 82%
    21:00 -1°C° 0 mm 2 m/S 742 mmHg 82%
    22:00 -1°C° 0 mm 2 m/S 742 mmHg 82%
    23:00 -1°C° 0 mm 2 m/S 742 mmHg 82%

    16 Dezember, Samstag

    Zeit Temperatur Niederschläge Wind Luftdruck Luftfeuchtigkeit
    00:00 -1°C° 0 mm 2 m/S 742 mmHg 82%
    01:00 -1°C° 0 mm 2 m/S 742 mmHg 81%
    02:00 -1°C° 0 mm 2 m/S 742 mmHg 83%
    03:00 -1°C° 0 mm 2 m/S 742 mmHg 85%
    04:00 -1°C° 0 mm 2 m/S 742 mmHg 87%
    05:00 -1°C° 0 mm 2 m/S 742 mmHg 88%
    06:00 -1°C° 0 mm 2 m/S 742 mmHg 90%
    07:00 -1°C° 0 mm 2 m/S 742 mmHg 91%
    08:00 -1°C° 0 mm 3 m/S 743 mmHg 89%
    09:00 -1°C° 0 mm 3 m/S 743 mmHg 88%
    10:00 0°C° 0 mm 3 m/S 744 mmHg 86%
    11:00 0°C° 0 mm 3 m/S 744 mmHg 84%
    12:00 0°C° 0 mm 4 m/S 744 mmHg 82%
    13:00 0°C° 0 mm 4 m/S 744 mmHg 80%
    14:00 0°C° 0 mm 4 m/S 745 mmHg 84%
    15:00 0°C° 0 mm 3 m/S 745 mmHg 87%
    16:00 0°C° 0 mm 3 m/S 745 mmHg 90%
    17:00 -1°C° 0 mm 4 m/S 746 mmHg 91%
    18:00 -1°C° 0 mm 4 m/S 746 mmHg 91%
    19:00 -1°C° 0 mm 4 m/S 747 mmHg 91%
    20:00 -1°C° 0 mm 4 m/S 747 mmHg 89%
    21:00 -1°C° 0 mm 4 m/S 747 mmHg 87%
    22:00 0°C° 0 mm 4 m/S 748 mmHg 85%
    23:00 -1°C° 0 mm 4 m/S 748 mmHg 85%
    Mehr zeigen